Погода в Шевченкове

Украина / Одесская область     45°33′18″N   29°19′58″E
темп.,
°C
ветер,
м/с
пор.,
м/с
влажн.,
%
обл.,
%
осадки,
мм/ч
давл.,
гПа
погр.,
м
15 августа, пн
пн1500:00+21зюз23850 0.0 100530
03:00+20зсз22870 0.0 100419
06:00+20зсз2280100 0.0 100419
09:00+26сз225590 0.2 1005494
12:00+31з2136100 0.0 10051912
15:00+32св2333100 0.1 10031365
18:00+22св7881100 5.1 1005190
21:00+23юз2263100 10.8 100514
16 августа, вт
вт1600:00+21ю2480100 0.0 100691
03:00+21з128029 0.0 100611
06:00+20з12831 0.0 100611
09:00+25зюз33591 0.0 1007391
12:00+32з34352 0.0 10062054
15:00+33з452850 0.0 10062699
18:00+30ююз894257 0.0 1006582
21:00+26ююз486073 0.0 1007284
17 августа, ср
ср1700:00+24с476113 0.0 1008181
03:00+22с35665 0.0 100895
06:00+21ссз33685 0.0 100841
09:00+26сз22495 0.0 1009481
12:00+32ссз33315 0.0 10091762
15:00+34зсз342595 0.0 10073145
18:00+27всв334999 0.8 1009211
21:00+24ссв226799 1.8 101016
18 августа, чт
чт1800:00+22св227477 0.6 101017
03:00+22ссз22785 1.8 101025
06:00+21сз23765 0.0 100938
09:00+26с34572 0.0 1010452
12:00+31сз66371 0.0 10101930
15:00+33сз7831100 0.0 10092978
18:00+32с783328 0.0 10091757
21:00+26сз014952 0.0 101016
19 августа, пт
пт1900:00+24зюз366610 0.0 1010114
03:00+23сз34600 0.0 101059
06:00+23сз35620 0.0 100982
09:00+27ссз56500 0.0 1010619
12:00+32с46350 0.0 10101828
15:00+35ссз56270 0.0 10092726
18:00+35сз462622 0.0 10082825
21:00+27ююв58500 0.0 1009157